Overview Statistics Trail Chart Weather Telemetry Raw packets
 

This is the latest recevied weather packets stored in our database for station/object KG7FOQ-13. If no packets are shown the sender has not sent any weather packets the latest 10 day(s).

<< 106 107 108 109 110 111 112 >>
Time Temp. Humidity Pressure Rain* Wind** Luminosity Snow
1787805780 27.22° C 28% 1016.9 hPa 0 mm - - -
1787805480 27.22° C 28% 1016.9 hPa 0 mm - - -
1787805177 27.22° C 27% 1016.9 hPa 0 mm - - -
1787804876 27.22° C 28% 1016.9 hPa 0 mm - - -
1787804575 27.22° C 26% 1016.9 hPa 0 mm - - -
1787804276 27.78° C 26% 1016.9 hPa 0 mm - - -
1787803975 27.22° C 26% 1016.7 hPa 0 mm - - -
1787803675 27.22° C 27% 1016.7 hPa 0 mm - - -
1787803374 27.78° C 27% 1016.7 hPa 0 mm - - -
1787803074 27.22° C 26% 1016.7 hPa 0 mm - - -
1787802772 27.22° C 27% 1016.7 hPa 0 mm - - -
1787802471 26.67° C 29% 1016.6 hPa 0 mm - - -
1787802170 26.67° C 30% 1016.6 hPa 0 mm - - -
1787801869 26.67° C 30% 1016.6 hPa 0 mm - - -
1787801569 27.22° C 30% 1016.5 hPa 0 mm - - -
1787801267 27.22° C 28% 1016.5 hPa 0 mm - - -
1787800967 26.11° C 30% 1016.5 hPa 0 mm - - -
1787800666 26.67° C 33% 1016.5 hPa 0 mm - - -
1787800366 26.11° C 34% 1016.4 hPa 0 mm - - -
1787800065 26.11° C 34% 1016.3 hPa 0 mm - - -
1787799464 27.22° C 31% 1016.2 hPa 0 mm - - -
1787799164 26.67° C 30% 1016.2 hPa 0 mm - - -
1787798862 26.67° C 31% 1016.3 hPa 0 mm - - -
1787798562 26.11° C 33% 1016.2 hPa 0 mm - - -
1787798261 26.11° C 33% 1016.2 hPa 0 mm - - -

* Rain latest hour (hover to see other rain measurements)
** Current wind speed in m/s (hover to see current wind gust speed)